| time (UTC) | temp F | wind direction | speed MPH | gust MPH | rain 1hr in | rain 24hr in | rain mn in | humidity % | barometer mb |
| 20260906030026 | 70 | 67 | 0.0 | 0.0 | 0.00 | 0.00 | 0.00 | 82 | 1017.3 |
| 20260906025526 | 70 | 67 | 0.0 | 0.0 | 0.00 | 0.00 | 0.00 | 82 | 1017.3 |
| 20260906025024 | 70 | 67 | 0.0 | 0.0 | 0.00 | 0.00 | 0.00 | 81 | 1017.3 |
| 20260906024520 | 70 | 67 | 0.0 | 0.0 | 0.00 | 0.00 | 0.00 | 81 | 1017.3 |
| 20260906024020 | 70 | 67 | 0.0 | 0.0 | 0.00 | 0.00 | 0.00 | 81 | 1017.0 |
| 20260906023516 | 71 | 67 | 0.0 | 0.0 | 0.00 | 0.00 | 0.00 | 80 | 1017.0 |
| 20260906023011 | 71 | 67 | 0.0 | 0.0 | 0.00 | 0.00 | 0.00 | 80 | 1017.0 |
| 20260906022506 | 71 | 67 | 0.0 | 0.0 | 0.00 | 0.00 | 0.00 | 80 | 1017.0 |
| 20260906022001 | 71 | 67 | 0.0 | 0.0 | 0.00 | 0.00 | 0.00 | 79 | 1016.7 |
| 20260906021456 | 71 | 67 | 0.0 | 0.0 | 0.00 | 0.00 | 0.00 | 79 | 1017.0 |
| 20260906020950 | 71 | 67 | 0.0 | 0.0 | 0.00 | 0.00 | 0.00 | 78 | 1016.7 |
| 20260906020445 | 72 | 67 | 0.0 | 0.0 | 0.00 | 0.00 | 0.00 | 78 | 1016.3 |
| 20260906015944 | 72 | 67 | 0.0 | 0.0 | 0.00 | 0.00 | 0.00 | 78 | 1016.3 |
| 20260906015444 | 72 | 67 | 0.0 | 0.0 | 0.00 | 0.00 | 0.00 | 78 | 1016.3 |
| 20260906014944 | 72 | 67 | 0.0 | 0.0 | 0.00 | 0.00 | 0.00 | 78 | 1016.3 |
| 20260906014438 | 72 | 67 | 0.0 | 0.0 | 0.00 | 0.00 | 0.00 | 77 | 1016.3 |
| 20260906013934 | 72 | 67 | 0.0 | 0.0 | 0.00 | 0.00 | 0.00 | 77 | 1016.0 |
| 20260906013429 | 72 | 67 | 0.0 | 0.0 | 0.00 | 0.00 | 0.00 | 77 | 1015.6 |
| 20260906012925 | 73 | 67 | 0.0 | 0.0 | 0.00 | 0.00 | 0.00 | 77 | 1015.6 |
| 20260906012425 | 73 | 67 | 0.0 | 1.0 | 0.00 | 0.00 | 0.00 | 77 | 1015.6 |
| 20260906011924 | 73 | 67 | 1.0 | 1.0 | 0.00 | 0.00 | 0.00 | 76 | 1015.6 |
| 20260906011420 | 73 | 67 | 0.0 | 0.0 | 0.00 | 0.00 | 0.00 | 76 | 1015.3 |
| 20260906010915 | 73 | 67 | 0.0 | 0.0 | 0.00 | 0.00 | 0.00 | 76 | 1015.6 |
| 20260906010411 | 73 | 67 | 0.0 | 0.0 | 0.00 | 0.00 | 0.00 | 76 | 1015.6 |
| 20260906005907 | 74 | 67 | 0.0 | 1.0 | 0.00 | 0.00 | 0.00 | 76 | 1015.6 |
| 20260906005406 | 74 | 68 | 0.0 | 0.0 | 0.00 | 0.00 | 0.00 | 76 | 1015.3 |
| 20260906004904 | 74 | 67 | 0.0 | 0.0 | 0.00 | 0.00 | 0.00 | 76 | 1015.6 |
| 20260906004359 | 75 | 67 | 1.0 | 1.0 | 0.00 | 0.00 | 0.00 | 76 | 1015.6 |
| 20260906003854 | 75 | 68 | 0.0 | 0.0 | 0.00 | 0.00 | 0.00 | 73 | 1015.6 |
| 20260906003350 | 75 | 68 | 0.0 | 0.0 | 0.00 | 0.00 | 0.00 | 73 | 1015.3 |
| 20260906002845 | 75 | 68 | 0.0 | 0.0 | 0.00 | 0.00 | 0.00 | 72 | 1015.3 |
| 20260906002344 | 75 | 68 | 0.0 | 0.0 | 0.00 | 0.00 | 0.00 | 72 | 1015.3 |
| 20260906001840 | 75 | 68 | 0.0 | 0.0 | 0.00 | 0.00 | 0.00 | 73 | 1015.3 |
| 20260906001336 | 75 | 68 | 0.0 | 0.0 | 0.00 | 0.00 | 0.00 | 72 | 1015.3 |
| 20260906000831 | 75 | 68 | 0.0 | 0.0 | 0.00 | 0.00 | 0.00 | 72 | 1015.3 |
| 20260906000326 | 75 | 68 | 0.0 | 0.0 | 0.00 | 0.00 | 0.00 | 72 | 1015.3 |
| 20260905235826 | 76 | 68 | 0.0 | 0.0 | 0.00 | 0.00 | 0.00 | 72 | 1015.3 |
| 20260905235320 | 76 | 68 | 0.0 | 0.0 | 0.00 | 0.00 | 0.00 | 72 | 1015.3 |
| 20260905234815 | 76 | 68 | 1.0 | 1.0 | 0.00 | 0.00 | 0.00 | 72 | 1015.3 |
| 20260905234310 | 76 | 68 | 0.0 | 0.0 | 0.00 | 0.00 | 0.00 | 72 | 1015.3 |
| 20260905233805 | 76 | 68 | 0.0 | 0.0 | 0.00 | 0.00 | 0.00 | 72 | 1015.3 |
| 20260905233300 | 76 | 68 | 0.0 | 0.0 | 0.00 | 0.00 | 0.00 | 71 | 1015.3 |
| 20260905232759 | 77 | 68 | 0.0 | 0.0 | 0.00 | 0.00 | 0.00 | 71 | 1015.3 |
| 20260905232255 | 77 | 68 | 1.0 | 1.0 | 0.00 | 0.00 | 0.00 | 70 | 1015.0 |
| 20260905231751 | 77 | 68 | 1.0 | 1.0 | 0.00 | 0.00 | 0.00 | 70 | 1015.0 |
| 20260905231246 | 77 | 68 | 1.0 | 1.0 | 0.00 | 0.00 | 0.00 | 70 | 1015.0 |
| 20260905230742 | 77 | 68 | 1.0 | 1.0 | 0.00 | 0.00 | 0.00 | 70 | 1015.0 |
| 20260905230240 | 77 | 68 | 1.0 | 1.0 | 0.00 | 0.00 | 0.00 | 71 | 1015.3 |
| 20260905225739 | 77 | 68 | 1.0 | 1.0 | 0.00 | 0.00 | 0.00 | 71 | 1015.3 |
| 20260905225235 | 77 | 68 | 0.0 | 0.0 | 0.00 | 0.00 | 0.00 | 71 | 1015.3 |
| 20260905224734 | 78 | 68 | 0.0 | 1.0 | 0.00 | 0.00 | 0.00 | 71 | 1015.6 |
| 20260905224230 | 78 | 68 | 0.0 | 0.0 | 0.00 | 0.00 | 0.00 | 72 | 1015.6 |
| 20260905223726 | 78 | 68 | 0.0 | 0.0 | 0.00 | 0.00 | 0.00 | 72 | 1015.6 |
| 20260905223222 | 78 | 68 | 0.0 | 0.0 | 0.00 | 0.00 | 0.00 | 71 | 1015.6 |
| 20260905222718 | 78 | 68 | 0.0 | 1.0 | 0.00 | 0.00 | 0.00 | 72 | 1015.6 |
| 20260905222217 | 79 | 68 | 0.0 | 0.0 | 0.00 | 0.00 | 0.00 | 71 | 1015.6 |
| 20260905221713 | 79 | 68 | 1.0 | 1.0 | 0.00 | 0.00 | 0.00 | 70 | 1015.3 |
| 20260905221210 | 79 | 68 | 1.0 | 1.0 | 0.00 | 0.00 | 0.00 | 70 | 1015.3 |
| 20260905220705 | 80 | 68 | 1.0 | 1.0 | 0.00 | 0.00 | 0.00 | 69 | 1015.3 |
| 20260905220201 | 80 | 68 | 0.0 | 1.0 | 0.00 | 0.00 | 0.00 | 69 | 1015.3 |
| 20260905215700 | 80 | 53 | 2.0 | 2.0 | 0.00 | 0.00 | 0.00 | 69 | 1015.0 |
| 20260905215156 | 80 | 53 | 1.0 | 1.0 | 0.00 | 0.00 | 0.00 | 68 | 1015.3 |
| 20260905214652 | 80 | 53 | 0.0 | 0.0 | 0.00 | 0.00 | 0.00 | 68 | 1015.3 |
| 20260905214147 | 80 | 53 | 0.0 | 0.0 | 0.00 | 0.00 | 0.00 | 68 | 1015.3 |
| 20260905213642 | 80 | 53 | 0.0 | 0.0 | 0.00 | 0.00 | 0.00 | 68 | 1015.6 |
| 20260905213138 | 81 | 53 | 0.0 | 1.0 | 0.00 | 0.00 | 0.00 | 67 | 1015.3 |
| 20260905212633 | 81 | 45 | 0.0 | 0.0 | 0.00 | 0.00 | 0.00 | 68 | 1015.3 |
| 20260905212132 | 81 | 45 | 0.0 | 1.0 | 0.00 | 0.00 | 0.00 | 67 | 1015.3 |
| 20260905211627 | 81 | 45 | 0.0 | 0.0 | 0.00 | 0.00 | 0.00 | 66 | 1015.6 |
| 20260905211123 | 82 | 45 | 0.0 | 0.0 | 0.00 | 0.00 | 0.00 | 65 | 1015.6 |
| 20260905210619 | 82 | 45 | 0.0 | 0.0 | 0.00 | 0.00 | 0.00 | 67 | 1015.6 |
| 20260905210113 | 82 | 45 | 0.0 | 0.0 | 0.00 | 0.00 | 0.00 | 65 | 1015.6 |
| 20260905205613 | 83 | 45 | 0.0 | 0.0 | 0.00 | 0.00 | 0.00 | 64 | 1015.6 |
| 20260905205113 | 83 | 37 | 0.0 | 0.0 | 0.00 | 0.00 | 0.00 | 66 | 1015.6 |
| 20260905204612 | 84 | 37 | 0.0 | 0.0 | 0.00 | 0.00 | 0.00 | 63 | 1016.0 |
| 20260905204108 | 84 | 37 | 0.0 | 0.0 | 0.00 | 0.00 | 0.00 | 65 | 1016.0 |
| 20260905203602 | 85 | 37 | 0.0 | 1.0 | 0.00 | 0.00 | 0.00 | 63 | 1015.6 |
| 20260905203057 | 85 | 26 | 0.0 | 0.0 | 0.00 | 0.00 | 0.00 | 62 | 1016.0 |
| 20260905202048 | 85 | 57 | 0.0 | 0.0 | 0.00 | 0.00 | 0.00 | 61 | 1016.0 |
| 20260905201544 | 84 | 344 | 0.0 | 0.0 | 0.00 | 0.00 | 0.00 | 59 | 1016.0 |
| 20260905201043 | 84 | 81 | 0.0 | 0.0 | 0.00 | 0.00 | 0.00 | 62 | 1016.0 |
| 20260905200538 | 84 | 100 | 0.0 | 0.0 | 0.00 | 0.00 | 0.00 | 60 | 1015.6 |
| 20260905200038 | 83 | 80 | 0.0 | 0.0 | 0.00 | 0.00 | 0.00 | 59 | 1016.3 |
| 20260905195532 | 83 | 64 | 0.0 | 0.0 | 0.00 | 0.00 | 0.00 | 61 | 1016.0 |
| 20260905195027 | 83 | 93 | 1.0 | 1.0 | 0.00 | 0.00 | 0.00 | 61 | 1016.0 |
| 20260905194522 | 83 | 229 | 0.0 | 1.0 | 0.00 | 0.00 | 0.00 | 61 | 1016.0 |
| 20260905194022 | 82 | 178 | 1.0 | 1.0 | 0.00 | 0.00 | 0.00 | 62 | 1016.3 |
| 20260905193522 | 82 | 340 | 1.0 | 2.0 | 0.00 | 0.00 | 0.00 | 62 | 1016.3 |
| 20260905193017 | 81 | 355 | 0.0 | 1.0 | 0.00 | 0.00 | 0.00 | 62 | 1016.3 |
| 20260905192512 | 81 | 206 | 1.0 | 1.0 | 0.00 | 0.00 | 0.00 | 63 | 1016.7 |
| 20260905192009 | 81 | 321 | 0.0 | 0.0 | 0.00 | 0.00 | 0.00 | 64 | 1016.3 |
| 20260905191507 | 81 | 265 | 0.0 | 0.0 | 0.00 | 0.00 | 0.00 | 67 | 1016.7 |
| 20260905191007 | 80 | 275 | 1.0 | 1.0 | 0.00 | 0.00 | 0.00 | 68 | 1016.7 |
| 20260905190504 | 80 | 343 | 0.0 | 1.0 | 0.00 | 0.00 | 0.00 | 68 | 1016.7 |
| 20260905190004 | 80 | 304 | 1.0 | 1.0 | 0.00 | 0.00 | 0.00 | 65 | 1016.7 |
| 20260905185458 | 80 | 62 | 0.0 | 0.0 | 0.00 | 0.00 | 0.00 | 67 | 1016.7 |
| 20260905184957 | 80 | 1 | 0.0 | 1.0 | 0.00 | 0.00 | 0.00 | 68 | 1016.3 |
| 20260905184452 | 80 | 336 | 0.0 | 0.0 | 0.00 | 0.00 | 0.00 | 68 | 1017.0 |
| 20260905183951 | 80 | 342 | 0.0 | 1.0 | 0.00 | 0.00 | 0.00 | 69 | 1016.7 |
| 20260905183451 | 80 | 336 | 1.0 | 1.0 | 0.00 | 0.00 | 0.00 | 68 | 1016.7 |
| 20260905182946 | 80 | 357 | 1.0 | 1.0 | 0.00 | 0.00 | 0.00 | 67 | 1016.7 |
| 20260905182445 | 80 | 11 | 1.0 | 1.0 | 0.00 | 0.00 | 0.00 | 65 | 1016.7 |
| 20260905181941 | 80 | 344 | 1.0 | 2.0 | 0.00 | 0.00 | 0.00 | 65 | 1016.7 |
| 20260905181441 | 80 | 85 | 0.0 | 0.0 | 0.00 | 0.00 | 0.00 | 67 | 1016.7 |
| 20260905180940 | 80 | 87 | 0.0 | 0.0 | 0.00 | 0.00 | 0.00 | 70 | 1016.7 |
| 20260905180435 | 80 | 88 | 0.0 | 1.0 | 0.00 | 0.00 | 0.00 | 70 | 1016.7 |
| 20260905175931 | 79 | 88 | 0.0 | 0.0 | 0.00 | 0.00 | 0.00 | 72 | 1016.7 |
| 20260905175429 | 79 | 100 | 0.0 | 0.0 | 0.00 | 0.00 | 0.00 | 72 | 1016.7 |
| 20260905174925 | 79 | 49 | 0.0 | 0.0 | 0.00 | 0.00 | 0.00 | 72 | 1016.7 |
| 20260905174421 | 79 | 49 | 0.0 | 1.0 | 0.00 | 0.00 | 0.00 | 70 | 1016.7 |
| 20260905173916 | 78 | 49 | 0.0 | 0.0 | 0.00 | 0.00 | 0.00 | 74 | 1016.7 |
| 20260905173413 | 78 | 49 | 0.0 | 0.0 | 0.00 | 0.00 | 0.00 | 73 | 1016.7 |
| 20260905172913 | 78 | 50 | 0.0 | 0.0 | 0.00 | 0.00 | 0.00 | 74 | 1017.0 |
| 20260905172411 | 78 | 50 | 0.0 | 0.0 | 0.00 | 0.00 | 0.00 | 75 | 1017.0 |
| 20260905171907 | 78 | 50 | 0.0 | 0.0 | 0.00 | 0.00 | 0.00 | 75 | 1017.0 |
| 20260905171403 | 78 | 49 | 0.0 | 0.0 | 0.00 | 0.00 | 0.00 | 75 | 1017.0 |
| 20260905170859 | 78 | 50 | 0.0 | 0.0 | 0.00 | 0.00 | 0.00 | 76 | 1017.0 |
| 20260905170355 | 77 | 49 | 0.0 | 0.0 | 0.00 | 0.00 | 0.00 | 76 | 1017.3 |
| 20260905165854 | 77 | 49 | 0.0 | 0.0 | 0.00 | 0.00 | 0.00 | 76 | 1017.0 |
| 20260905165349 | 77 | 49 | 0.0 | 0.0 | 0.00 | 0.00 | 0.00 | 76 | 1017.0 |
| 20260905164844 | 77 | 50 | 0.0 | 0.0 | 0.00 | 0.00 | 0.00 | 78 | 1017.0 |
| 20260905164339 | 77 | 50 | 0.0 | 0.0 | 0.00 | 0.00 | 0.00 | 78 | 1017.3 |
| 20260905163835 | 77 | 50 | 0.0 | 0.0 | 0.00 | 0.00 | 0.00 | 79 | 1017.0 |
| 20260905163331 | 77 | 50 | 0.0 | 1.0 | 0.00 | 0.00 | 0.00 | 77 | 1016.7 |
| 20260905162827 | 77 | 50 | 0.0 | 0.0 | 0.00 | 0.00 | 0.00 | 77 | 1016.7 |
| 20260905162327 | 76 | 87 | 0.0 | 0.0 | 0.00 | 0.00 | 0.00 | 77 | 1017.0 |
| 20260905161827 | 76 | 87 | 0.0 | 0.0 | 0.00 | 0.00 | 0.00 | 78 | 1016.7 |
| 20260905161326 | 76 | 88 | 0.0 | 0.0 | 0.00 | 0.00 | 0.00 | 79 | 1016.7 |
| 20260905160825 | 76 | 88 | 0.0 | 0.0 | 0.00 | 0.00 | 0.00 | 79 | 1017.0 |
| 20260905160319 | 76 | 39 | 0.0 | 0.0 | 0.00 | 0.00 | 0.00 | 79 | 1017.0 |
| 20260905155814 | 75 | 39 | 0.0 | 0.0 | 0.00 | 0.00 | 0.00 | 79 | 1017.0 |
| 20260905155313 | 75 | 36 | 0.0 | 0.0 | 0.00 | 0.00 | 0.00 | 80 | 1016.7 |
| 20260905154807 | 75 | 353 | 0.0 | 0.0 | 0.00 | 0.00 | 0.00 | 81 | 1016.7 |
| 20260905154303 | 75 | 39 | 0.0 | 0.0 | 0.00 | 0.00 | 0.00 | 80 | 1017.0 |
| 20260905153758 | 75 | 39 | 0.0 | 0.0 | 0.00 | 0.00 | 0.00 | 81 | 1016.7 |
| 20260905153254 | 75 | 39 | 0.0 | 1.0 | 0.00 | 0.00 | 0.00 | 81 | 1017.0 |
| 20260905152748 | 75 | 39 | 0.0 | 0.0 | 0.00 | 0.00 | 0.00 | 81 | 1016.7 |
| 20260905152243 | 75 | 39 | 0.0 | 0.0 | 0.00 | 0.00 | 0.00 | 81 | 1016.7 |
| 20260905151742 | 74 | 39 | 0.0 | 0.0 | 0.00 | 0.00 | 0.00 | 82 | 1016.7 |
| 20260905151238 | 74 | 39 | 0.0 | 0.0 | 0.00 | 0.00 | 0.00 | 82 | 1016.7 |
| 20260905150738 | 74 | 39 | 0.0 | 0.0 | 0.00 | 0.00 | 0.00 | 82 | 1016.7 |
| 20260905150238 | 74 | 39 | 0.0 | 0.0 | 0.00 | 0.00 | 0.00 | 82 | 1016.7 |
| 20260905145735 | 74 | 39 | 0.0 | 0.0 | 0.00 | 0.00 | 0.00 | 83 | 1016.7 |
| 20260905145230 | 73 | 39 | 0.0 | 0.0 | 0.00 | 0.00 | 0.00 | 83 | 1016.7 |
| 20260905144729 | 73 | 39 | 0.0 | 0.0 | 0.00 | 0.00 | 0.00 | 83 | 1016.3 |
| 20260905144224 | 73 | 39 | 0.0 | 0.0 | 0.00 | 0.00 | 0.00 | 84 | 1016.3 |
| 20260905143724 | 73 | 39 | 0.0 | 0.0 | 0.00 | 0.00 | 0.00 | 84 | 1016.7 |
| 20260905143223 | 73 | 39 | 0.0 | 1.0 | 0.00 | 0.00 | 0.00 | 84 | 1016.7 |
| 20260905142721 | 73 | 31 | 0.0 | 0.0 | 0.00 | 0.00 | 0.00 | 85 | 1016.3 |
| 20260905142216 | 73 | 31 | 0.0 | 0.0 | 0.00 | 0.00 | 0.00 | 85 | 1016.3 |
| 20260905141712 | 72 | 31 | 0.0 | 0.0 | 0.00 | 0.00 | 0.00 | 86 | 1016.3 |
| 20260905141208 | 72 | 31 | 0.0 | 0.0 | 0.00 | 0.00 | 0.00 | 86 | 1016.3 |
| 20260905140703 | 72 | 31 | 0.0 | 0.0 | 0.00 | 0.00 | 0.00 | 87 | 1016.0 |
| 20260905140157 | 72 | 29 | 0.0 | 0.0 | 0.00 | 0.00 | 0.00 | 88 | 1016.3 |
| 20260905135652 | 72 | 28 | 0.0 | 0.0 | 0.00 | 0.00 | 0.00 | 88 | 1016.0 |
| 20260905135148 | 72 | 28 | 0.0 | 0.0 | 0.00 | 0.00 | 0.00 | 88 | 1016.0 |
| 20260905134647 | 71 | 28 | 0.0 | 0.0 | 0.00 | 0.00 | 0.00 | 88 | 1016.3 |
| 20260905134146 | 71 | 28 | 0.0 | 0.0 | 0.00 | 0.00 | 0.00 | 88 | 1016.0 |
| 20260905133641 | 71 | 28 | 0.0 | 0.0 | 0.00 | 0.00 | 0.00 | 89 | 1015.6 |
| 20260905133136 | 71 | 28 | 0.0 | 0.0 | 0.00 | 0.00 | 0.00 | 89 | 1016.0 |
| 20260905132635 | 71 | 28 | 0.0 | 0.0 | 0.00 | 0.00 | 0.00 | 89 | 1015.6 |
| 20260905132131 | 71 | 28 | 0.0 | 0.0 | 0.00 | 0.00 | 0.00 | 89 | 1015.6 |
| 20260905131626 | 71 | 29 | 0.0 | 0.0 | 0.00 | 0.00 | 0.00 | 89 | 1015.3 |
| 20260905131121 | 71 | 29 | 0.0 | 0.0 | 0.00 | 0.00 | 0.00 | 89 | 1015.3 |
| 20260905130615 | 70 | 29 | 0.0 | 0.0 | 0.00 | 0.00 | 0.00 | 89 | 1015.0 |
| 20260905130115 | 70 | 29 | 0.0 | 0.0 | 0.00 | 0.00 | 0.00 | 89 | 1015.3 |
| 20260905125609 | 70 | 29 | 0.0 | 0.0 | 0.00 | 0.00 | 0.00 | 89 | 1015.0 |
| 20260905125105 | 70 | 29 | 0.0 | 0.0 | 0.00 | 0.00 | 0.00 | 89 | 1015.3 |
| 20260905124601 | 70 | 29 | 0.0 | 0.0 | 0.00 | 0.00 | 0.00 | 89 | 1015.3 |
| 20260905124057 | 70 | 29 | 0.0 | 0.0 | 0.00 | 0.00 | 0.00 | 89 | 1015.3 |
| 20260905123552 | 70 | 29 | 0.0 | 0.0 | 0.00 | 0.00 | 0.00 | 89 | 1015.3 |
| 20260905123049 | 70 | 29 | 0.0 | 0.0 | 0.00 | 0.00 | 0.00 | 89 | 1015.0 |
| 20260905122548 | 69 | 29 | 0.0 | 0.0 | 0.00 | 0.00 | 0.00 | 89 | 1015.0 |
| 20260905122037 | 69 | 29 | 0.0 | 0.0 | 0.00 | 0.00 | 0.00 | 89 | 1015.3 |
| 20260905121532 | 69 | 26 | 0.0 | 0.0 | 0.00 | 0.00 | 0.00 | 89 | 1015.3 |
| 20260905121027 | 69 | 26 | 0.0 | 0.0 | 0.00 | 0.00 | 0.00 | 89 | 1015.0 |
| 20260905120526 | 69 | 26 | 0.0 | 0.0 | 0.00 | 0.00 | 0.00 | 89 | 1015.3 |
| 20260905120022 | 69 | 5 | 0.0 | 0.0 | 0.00 | 0.00 | 0.00 | 89 | 1015.3 |
| 20260905115521 | 69 | 40 | 0.0 | 0.0 | 0.00 | 0.00 | 0.00 | 89 | 1015.3 |
| 20260905115016 | 69 | 40 | 0.0 | 0.0 | 0.00 | 0.00 | 0.00 | 89 | 1015.3 |
| 20260905114515 | 69 | 40 | 0.0 | 0.0 | 0.00 | 0.00 | 0.00 | 89 | 1015.0 |
| 20260905114015 | 69 | 40 | 0.0 | 0.0 | 0.00 | 0.00 | 0.00 | 89 | 1015.0 |
| 20260905113510 | 68 | 40 | 0.0 | 0.0 | 0.00 | 0.00 | 0.00 | 89 | 1015.0 |
| 20260905113005 | 69 | 40 | 0.0 | 0.0 | 0.00 | 0.00 | 0.00 | 88 | 1015.0 |
| 20260905112500 | 69 | 40 | 0.0 | 0.0 | 0.00 | 0.00 | 0.00 | 88 | 1015.0 |
| 20260905111955 | 69 | 40 | 0.0 | 0.0 | 0.00 | 0.00 | 0.00 | 88 | 1014.6 |
| 20260905111450 | 69 | 40 | 0.0 | 0.0 | 0.00 | 0.00 | 0.00 | 88 | 1014.6 |
| 20260905110950 | 69 | 40 | 0.0 | 0.0 | 0.00 | 0.00 | 0.00 | 88 | 1014.6 |
| 20260905110449 | 69 | 40 | 0.0 | 0.0 | 0.00 | 0.00 | 0.00 | 88 | 1014.6 |
| 20260905105949 | 69 | 40 | 0.0 | 0.0 | 0.00 | 0.00 | 0.00 | 88 | 1014.6 |
| 20260905105443 | 70 | 40 | 0.0 | 0.0 | 0.00 | 0.00 | 0.00 | 88 | 1014.6 |
| 20260905104942 | 70 | 40 | 1.0 | 1.0 | 0.00 | 0.00 | 0.00 | 88 | 1014.6 |
| 20260905104438 | 70 | 40 | 0.0 | 0.0 | 0.00 | 0.00 | 0.00 | 89 | 1014.3 |
| 20260905103933 | 71 | 40 | 0.0 | 0.0 | 0.00 | 0.00 | 0.00 | 89 | 1013.9 |
| 20260905103429 | 71 | 40 | 0.0 | 0.0 | 0.00 | 0.00 | 0.00 | 88 | 1013.9 |
| 20260905102925 | 71 | 40 | 0.0 | 0.0 | 0.00 | 0.00 | 0.00 | 89 | 1013.6 |
| 20260905102421 | 71 | 40 | 0.0 | 0.0 | 0.00 | 0.00 | 0.00 | 89 | 1013.9 |
| 20260905101915 | 72 | 40 | 0.0 | 0.0 | 0.00 | 0.00 | 0.00 | 89 | 1013.6 |
| 20260905101414 | 72 | 40 | 0.0 | 0.0 | 0.00 | 0.00 | 0.00 | 89 | 1013.9 |
| 20260905100909 | 72 | 40 | 0.0 | 0.0 | 0.00 | 0.00 | 0.00 | 89 | 1013.6 |
| 20260905100405 | 72 | 40 | 0.0 | 0.0 | 0.00 | 0.00 | 0.00 | 89 | 1013.6 |
| 20260905095904 | 72 | 40 | 0.0 | 0.0 | 0.00 | 0.00 | 0.00 | 89 | 1013.6 |
| 20260905095358 | 73 | 40 | 0.0 | 0.0 | 0.00 | 0.00 | 0.00 | 89 | 1013.6 |
| 20260905094853 | 73 | 40 | 0.0 | 0.0 | 0.00 | 0.00 | 0.00 | 89 | 1013.2 |
| 20260905094349 | 73 | 40 | 0.0 | 0.0 | 0.00 | 0.00 | 0.00 | 89 | 1013.2 |
| 20260905093847 | 73 | 40 | 0.0 | 0.0 | 0.00 | 0.00 | 0.00 | 89 | 1013.9 |
| 20260905093343 | 73 | 40 | 0.0 | 0.0 | 0.00 | 0.00 | 0.00 | 89 | 1013.6 |
| 20260905092839 | 73 | 40 | 0.0 | 0.0 | 0.00 | 0.00 | 0.00 | 89 | 1013.9 |
| 20260905092338 | 73 | 40 | 0.0 | 0.0 | 0.00 | 0.00 | 0.00 | 89 | 1013.6 |
| 20260905091833 | 73 | 40 | 0.0 | 0.0 | 0.00 | 0.00 | 0.00 | 89 | 1013.9 |
| 20260905091328 | 73 | 40 | 0.0 | 0.0 | 0.00 | 0.00 | 0.00 | 89 | 1013.9 |
| 20260905090826 | 73 | 40 | 0.0 | 0.0 | 0.00 | 0.00 | 0.00 | 89 | 1013.6 |
| 20260905090322 | 73 | 40 | 0.0 | 0.0 | 0.00 | 0.00 | 0.00 | 89 | 1013.9 |
| 20260905085821 | 73 | 40 | 0.0 | 0.0 | 0.00 | 0.00 | 0.00 | 89 | 1013.6 |
| 20260905085317 | 73 | 40 | 0.0 | 0.0 | 0.00 | 0.00 | 0.00 | 89 | 1013.6 |
| 20260905084813 | 73 | 40 | 0.0 | 0.0 | 0.00 | 0.00 | 0.00 | 89 | 1013.6 |
| 20260905084312 | 73 | 40 | 0.0 | 0.0 | 0.00 | 0.00 | 0.00 | 89 | 1013.6 |
| 20260905083807 | 73 | 40 | 0.0 | 0.0 | 0.00 | 0.00 | 0.00 | 89 | 1013.6 |
| 20260905083303 | 73 | 40 | 0.0 | 0.0 | 0.00 | 0.00 | 0.00 | 89 | 1013.6 |
| 20260905082757 | 73 | 40 | 0.0 | 0.0 | 0.00 | 0.00 | 0.00 | 89 | 1013.6 |
| 20260905082253 | 73 | 40 | 0.0 | 0.0 | 0.00 | 0.00 | 0.00 | 89 | 1013.6 |
| 20260905081748 | 74 | 40 | 0.0 | 0.0 | 0.00 | 0.00 | 0.00 | 89 | 1013.6 |
| 20260905081244 | 74 | 40 | 0.0 | 0.0 | 0.00 | 0.00 | 0.00 | 89 | 1013.6 |
| 20260905080743 | 74 | 40 | 0.0 | 0.0 | 0.00 | 0.00 | 0.00 | 89 | 1013.6 |
| 20260905080243 | 74 | 40 | 0.0 | 0.0 | 0.00 | 0.00 | 0.00 | 89 | 1013.9 |
| 20260905075742 | 73 | 40 | 0.0 | 0.0 | 0.00 | 0.00 | 0.00 | 89 | 1013.6 |
| 20260905075241 | 73 | 40 | 0.0 | 0.0 | 0.00 | 0.00 | 0.00 | 89 | 1013.9 |
| 20260905074740 | 73 | 40 | 0.0 | 0.0 | 0.00 | 0.00 | 0.00 | 89 | 1013.9 |
| 20260905074236 | 73 | 40 | 0.0 | 0.0 | 0.00 | 0.00 | 0.00 | 89 | 1013.9 |
| 20260905073731 | 73 | 40 | 0.0 | 0.0 | 0.00 | 0.00 | 0.00 | 89 | 1013.6 |
| 20260905073227 | 73 | 40 | 0.0 | 0.0 | 0.00 | 0.00 | 0.00 | 89 | 1013.9 |
| 20260905072726 | 73 | 40 | 0.0 | 0.0 | 0.00 | 0.00 | 0.00 | 89 | 1013.6 |
| 20260905072221 | 73 | 40 | 0.0 | 0.0 | 0.00 | 0.00 | 0.00 | 88 | 1013.6 |
| 20260905071718 | 74 | 40 | 0.0 | 0.0 | 0.00 | 0.00 | 0.00 | 88 | 1013.2 |
| 20260905071214 | 74 | 40 | 0.0 | 0.0 | 0.00 | 0.00 | 0.00 | 89 | 1013.9 |
| 20260905070709 | 73 | 40 | 0.0 | 0.0 | 0.00 | 0.00 | 0.00 | 89 | 1013.6 |
| 20260905070204 | 73 | 40 | 0.0 | 0.0 | 0.00 | 0.00 | 0.00 | 89 | 1013.6 |
| 20260905065703 | 73 | 40 | 0.0 | 0.0 | 0.00 | 0.00 | 0.00 | 88 | 1013.2 |
| 20260905065158 | 73 | 40 | 0.0 | 0.0 | 0.00 | 0.00 | 0.00 | 88 | 1013.6 |
| 20260905064653 | 74 | 40 | 0.0 | 0.0 | 0.00 | 0.00 | 0.00 | 88 | 1013.6 |
| 20260905064149 | 74 | 40 | 0.0 | 0.0 | 0.00 | 0.00 | 0.00 | 88 | 1013.6 |
| 20260905063647 | 74 | 40 | 0.0 | 0.0 | 0.00 | 0.00 | 0.00 | 88 | 1013.2 |
| 20260905063143 | 74 | 40 | 0.0 | 0.0 | 0.00 | 0.00 | 0.00 | 88 | 1013.6 |
| 20260905062639 | 74 | 40 | 0.0 | 0.0 | 0.00 | 0.00 | 0.00 | 88 | 1013.6 |
| 20260905062138 | 74 | 40 | 0.0 | 0.0 | 0.00 | 0.00 | 0.00 | 88 | 1013.2 |
| 20260905061633 | 74 | 40 | 0.0 | 0.0 | 0.00 | 0.00 | 0.00 | 88 | 1013.2 |
| 20260905061132 | 74 | 40 | 0.0 | 0.0 | 0.00 | 0.00 | 0.00 | 88 | 1013.6 |
| 20260905060628 | 74 | 40 | 0.0 | 0.0 | 0.00 | 0.00 | 0.00 | 88 | 1013.6 |
| 20260905060125 | 74 | 40 | 0.0 | 0.0 | 0.00 | 0.00 | 0.00 | 88 | 1013.6 |
| 20260905055622 | 74 | 40 | 0.0 | 0.0 | 0.00 | 0.00 | 0.00 | 88 | 1013.2 |
| 20260905055118 | 74 | 40 | 0.0 | 0.0 | 0.00 | 0.00 | 0.00 | 88 | 1013.6 |
| 20260905054614 | 74 | 40 | 0.0 | 0.0 | 0.00 | 0.00 | 0.00 | 88 | 1013.6 |
| 20260905054109 | 74 | 40 | 0.0 | 0.0 | 0.00 | 0.00 | 0.00 | 88 | 1013.2 |
| 20260905053609 | 74 | 40 | 0.0 | 0.0 | 0.00 | 0.00 | 0.00 | 88 | 1013.2 |
| 20260905053104 | 74 | 40 | 0.0 | 0.0 | 0.00 | 0.00 | 0.00 | 88 | 1013.2 |
| 20260905052603 | 74 | 40 | 0.0 | 0.0 | 0.00 | 0.00 | 0.00 | 88 | 1013.6 |
| 20260905052058 | 74 | 40 | 0.0 | 0.0 | 0.00 | 0.00 | 0.00 | 88 | 1013.2 |
| 20260905051553 | 74 | 40 | 0.0 | 0.0 | 0.00 | 0.00 | 0.00 | 88 | 1013.2 |
| 20260905051050 | 75 | 40 | 0.0 | 1.0 | 0.00 | 0.00 | 0.00 | 88 | 1013.2 |
| 20260905050546 | 75 | 40 | 0.0 | 0.0 | 0.00 | 0.00 | 0.00 | 88 | 1013.2 |
| 20260905050043 | 75 | 40 | 0.0 | 0.0 | 0.00 | 0.15 | 0.15 | 88 | 1013.2 |
| 20260905045537 | 75 | 40 | 0.0 | 0.0 | 0.00 | 0.15 | 0.15 | 88 | 1012.5 |
| 20260905045033 | 75 | 40 | 0.0 | 0.0 | 0.00 | 0.15 | 0.15 | 88 | 1012.8 |
| 20260905044532 | 75 | 40 | 0.0 | 0.0 | 0.00 | 0.15 | 0.15 | 88 | 1012.8 |
| 20260905044027 | 75 | 40 | 0.0 | 0.0 | 0.00 | 0.15 | 0.15 | 88 | 1012.5 |
| 20260905043526 | 75 | 40 | 0.0 | 0.0 | 0.00 | 0.15 | 0.15 | 88 | 1012.8 |
| 20260905043022 | 75 | 40 | 0.0 | 0.0 | 0.00 | 0.15 | 0.15 | 88 | 1012.8 |
| 20260905042520 | 75 | 40 | 0.0 | 1.0 | 0.00 | 0.15 | 0.15 | 88 | 1012.8 |
| 20260905042016 | 75 | 40 | 1.0 | 1.0 | 0.00 | 0.15 | 0.15 | 88 | 1012.5 |
| 20260905041511 | 75 | 40 | 0.0 | 1.0 | 0.00 | 0.15 | 0.15 | 87 | 1012.8 |
| 20260905041007 | 75 | 40 | 0.0 | 0.0 | 0.00 | 0.15 | 0.15 | 87 | 1012.8 |
| 20260905040506 | 75 | 40 | 0.0 | 0.0 | 0.00 | 0.15 | 0.15 | 87 | 1012.8 |
| 20260905040005 | 75 | 40 | 0.0 | 0.0 | 0.00 | 0.15 | 0.15 | 87 | 1012.5 |
| 20260905035500 | 75 | 40 | 0.0 | 0.0 | 0.00 | 0.15 | 0.15 | 87 | 1013.2 |
| 20260905034957 | 75 | 40 | 0.0 | 0.0 | 0.00 | 0.15 | 0.15 | 87 | 1012.8 |
| 20260905034458 | 75 | 40 | 0.0 | 0.0 | 0.00 | 0.15 | 0.15 | 86 | 1012.8 |
| 20260905033956 | 75 | 40 | 0.0 | 0.0 | 0.00 | 0.15 | 0.15 | 86 | 1013.2 |
| 20260905033451 | 76 | 40 | 0.0 | 0.0 | 0.00 | 0.15 | 0.15 | 86 | 1012.8 |
| 20260905032946 | 76 | 40 | 0.0 | 0.0 | 0.00 | 0.15 | 0.15 | 85 | 1012.8 |
| 20260905032442 | 76 | 40 | 0.0 | 0.0 | 0.00 | 0.15 | 0.15 | 85 | 1013.2 |
| 20260905031936 | 76 | 40 | 0.0 | 1.0 | 0.00 | 0.15 | 0.15 | 85 | 1013.2 |
| 20260905031432 | 76 | 40 | 0.0 | 0.0 | 0.00 | 0.15 | 0.15 | 85 | 1013.2 |
| 20260905030927 | 76 | 40 | 0.0 | 0.0 | 0.00 | 0.15 | 0.15 | 84 | 1013.2 |
| 20260905030423 | 77 | 40 | 0.0 | 0.0 | 0.00 | 0.15 | 0.15 | 83 | 1013.2 |